Theta_e
297 297 297 298 297 296 296 295 294 294 296 297 297 298 299 299 300 304 304 303 304 312 315 316 317 317 316 315 318 315 314 313 311 313 314 313 315 314 316 314 315 316 317 316 317 316 316 313 314 316 312 309 308 306
296 297 297 297 297 296 295 294 294 295 296 297 298 298 299 300 303 304 303 303 303 305 314 316 316 317 318 317 314 312 314 310 311 313 313 314 315 313 313 316 318 315 316 317 315 315 314 313 314 310 309 309 306 305
295 296 297 297 297 296 294 294 295 296 296 297 297 298 300 300 304 304 303 306 306 314 311 311 315 317 317 318 319 316 318 314 316 311 313 314 317 311 316 317 321 320 317 317 316 316 313 310 307 307 307 306 304 302
296 296 296 296 295 294 294 294 296 296 297 298 298 299 300 303 304 303 303 304 306 311 309 315 317 318 318 319 320 316 317 314 312 312 311 311 317 314 317 318 319 317 317 315 315 314 312 309 306 305 304 303 302 301
295 295 294 294 294 294 295 296 296 296 297 297 299 299 303 303 303 302 303 304 305 311 309 314 314 316 315 316 315 315 311 310 311 315 310 313 313 315 311 314 319 316 315 315 316 314 312 310 305 304 304 303 302 300
293 293 293 294 295 295 295 295 296 296 296 297 298 301 303 303 302 303 306 304 304 308 311 316 313 314 315 315 314 313 312 311 312 315 314 313 313 311 315 317 317 317 313 313 314 312 309 306 304 304 303 302 301 299
293 293 294 296 296 295 296 295 296 296 297 299 302 303 302 301 300 305 309 310 311 310 309 314 318 314 313 312 310 311 310 309 312 311 313 312 314 311 312 319 317 316 312 312 309 308 307 306 305 303 302 301 300 299
293 294 295 295 296 296 295 295 295 296 298 302 303 301 301 300 302 304 307 310 311 312 308 310 315 316 313 313 315 308 310 310 310 310 311 313 311 309 310 315 314 312 311 310 310 309 308 305 303 302 301 299 297 296
294 295 295 295 296 295 295 295 296 299 302 302 300 300 302 305 306 309 308 312 310 310 309 311 314 315 311 310 310 310 308 312 308 313 314 310 311 309 310 315 313 312 312 309 308 307 306 304 303 301 299 298 296 294
294 295 295 295 294 294 294 295 297 301 301 300 302 305 299 306 309 310 312 309 305 305 307 311 308 316 312 310 311 310 307 309 308 313 309 312 313 311 311 313 312 309 308 308 308 306 305 304 302 300 299 298 296 294
294 294 295 295 294 293 294 294 301 300 301 303 303 302 305 308 308 308 306 307 302 311 309 311 311 314 310 314 312 308 306 307 310 314 313 311 313 313 312 310 309 309 309 309 310 307 306 304 302 300 298 297 295 293
294 295 294 295 293 293 295 300 299 301 302 303 304 306 304 306 306 304 307 305 306 314 310 314 313 311 310 309 310 305 309 304 315 307 306 313 308 310 311 310 308 307 307 307 307 306 305 303 302 299 297 295 293 293
294 294 293 293 292 293 295 299 300 301 305 304 303 302 305 302 307 310 312 307 306 307 310 310 310 308 308 307 305 306 310 307 305 305 313 310 306 309 310 308 306 306 307 306 305 304 303 301 300 298 295 294 294 292
294 293 293 294 295 297 298 299 302 303 302 302 302 305 305 305 306 308 307 305 304 308 308 307 305 308 305 307 304 309 307 307 307 307 311 304 306 309 308 307 307 305 304 303 301 300 299 298 297 296 296 294 294 290
293 293 293 293 295 297 296 299 302 302 300 301 302 303 304 301 301 300 300 303 305 309 307 307 306 306 306 307 306 307 310 310 309 307 303 300 306 307 307 306 305 302 299 299 299 298 296 295 294 292 293 294 294 292
294 294 295 294 293 294 295 297 298 297 296 299 300 301 300 301 299 301 302 304 308 307 307 307 307 306 307 306 310 310 309 309 306 303 301 303 305 305 306 305 303 302 301 299 299 297 296 295 293 292 291 292 293 293
293 293 295 293 294 295 297 296 296 294 296 298 296 300 301 303 303 303 303 307 308 309 309 306 308 307 304 307 307 305 307 302 299 300 302 303 305 303 302 301 300 300 299 298 297 296 295 294 293 291 289 289 291 292
293 294 295 294 294 295 295 295 294 295 296 296 297 299 299 299 301 303 305 308 309 308 307 307 304 308 305 307 306 303 301 301 299 300 300 300 300 302 302 300 300 299 299 298 297 295 294 293 293 292 290 290 290 289
293 295 295 294 295 294 293 294 294 296 296 296 296 296 298 300 301 302 304 308 308 305 305 304 306 305 304 304 303 301 301 300 302 300 299 300 301 301 300 300 299 299 297 296 295 295 295 295 295 293 292 291 289 288
294 295 294 294 294 293 291 293 294 295 296 296 297 298 298 299 301 305 309 310 306 304 306 305 305 304 304 304 301 301 300 298 303 303 299 297 299 300 299 299 298 297 296 296 295 295 294 294 294 294 294 292 291 288
294 294 294 294 293 294 295 293 294 294 296 296 296 298 301 301 304 307 310 308 306 301 304 305 304 303 301 300 301 300 300 301 301 303 302 299 298 298 298 297 297 296 295 294 294 293 294 294 294 295 294 294 293 292
294 294 294 293 291 290 290 292 294 294 298 299 299 302 303 303 303 303 305 307 306 305 303 304 302 301 301 300 299 302 302 303 301 300 300 298 297 297 296 296 296 295 295 295 295 294 295 296 295 295 294 293 293 292
293 293 292 291 287 286 289 293 297 298 300 302 300 304 304 302 302 303 304 306 305 299 301 301 300 300 299 300 301 301 302 303 299 299 299 298 298 298 296 297 297 296 294 295 296 296 295 295 295 294 294 292 292 291
293 290 285 287 288 287 292 295 296 299 302 302 302 303 305 304 302 305 307 304 301 300 301 300 300 300 299 299 297 298 300 301 299 299 299 298 296 296 298 298 298 298 299 297 297 296 296 295 294 294 293 292 291 291
286 285 285 286 292 287 287 295 300 300 302 303 302 301 303 301 301 302 307 304 300 300 299 300 299 299 298 298 296 299 300 302 299 297 299 300 297 296 296 297 297 299 299 297 295 295 294 294 293 293 292 292 291 290
284 285 287 286 291 290 293 297 298 299 301 302 302 300 301 302 300 304 304 299 297 296 293 297 300 299 298 298 298 297 300 301 302 299 300 301 301 298 295 294 293 295 298 301 299 296 294 293 293 293 292 292 292 291
285 289 291 290 294 295 295 296 297 300 300 301 303 301 299 302 297 302 296 293 294 293 294 297 301 300 299 299 300 301 301 301 302 302 301 302 302 302 302 298 296 300 299 299 300 300 298 296 295 294 293 293 293 293
292 294 293 293 295 294 291 294 297 299 300 301 299 295 296 296 300 292 292 290 290 291 295 298 302 303 302 302 302 301 300 301 300 301 301 301 301 301 301 301 301 301 300 300 300 300 300 300 298 296 295 295 294 293
293 294 295 295 295 293 292 294 295 297 295 298 298 297 294 290 288 288 288 288 290 292 296 297 297 302 302 302 301 300 300 301 299 297 298 296 297 298 299 301 301 300 301 300 300 300 300 300 299 299 298 297 296 295
291 294 293 290 291 291 289 289 293 292 291 291 291 290 290 289 287 285 285 287 289 292 295 297 297 300 297 297 295 297 299 300 300 297 296 296 296 297 298 299 299 299 299 299 299 298 297 297 296 295 294 293 292 292
293 293 293 292 291 287 285 289 291 291 290 291 290 290 290 289 287 285 284 284 288 291 294 294 294 296 296 296 296 296 295 300 301 301 301 301 300 299 299 299 299 298 298 298 298 297 296 295 295 294 293 292 292 292
291 292 291 290 289 290 292 293 292 292 292 292 292 290 289 288 288 285 283 283 284 285 287 289 291 291 296 297 298 299 299 299 300 301 301 302 300 299 299 299 299 298 297 296 296 295 295 295 294 293 293 292 292 292
289 289 291 292 293 293 293 294 293 292 291 291 290 288 286 287 285 283 283 282 281 282 286 288 289 291 293 295 296 296 297 297 298 298 299 299 299 299 299 299 298 297 297 296 295 295 295 294 294 293 294 294 293 293
Wind_Speed
18 20 23 25 24 22 20 18 17 15 17 16 15 17 19 23 21 21 8 12 12 4 5 2 2 3 1 2 5 4 4 3 3 5 4 2 4 2 4 3 3 4 5 2 3 4 3 1 5 7 4 4 13 13
13 16 19 22 22 20 16 14 13 13 15 14 14 18 22 19 14 26 4 11 15 3 5 12 17 13 6 3 4 2 4 4 4 5 2 4 3 2 4 2 2 1 4 5 4 4 2 3 2 2 4 10 7 12
10 13 16 19 18 17 14 14 13 14 13 15 17 18 20 18 26 26 10 11 9 4 3 2 5 3 7 8 7 5 1 5 3 2 4 3 5 3 3 2 4 2 2 4 3 5 3 3 6 5 6 10 13 15
12 14 15 16 16 16 15 14 15 15 15 17 18 15 21 18 25 25 11 10 10 2 2 5 6 4 10 7 9 5 12 8 6 3 4 3 4 2 4 3 4 4 4 5 3 2 5 7 5 9 14 17 19 18
13 13 14 14 14 14 15 16 14 14 17 16 16 16 14 19 18 15 17 20 22 4 3 3 6 10 10 10 19 22 14 7 3 4 4 2 2 4 1 2 2 4 7 4 5 9 4 4 6 12 18 18 17 21
9 9 10 11 13 15 12 11 13 15 16 16 18 20 21 21 18 9 2 25 37 16 2 1 3 5 11 14 21 11 5 5 4 4 3 2 1 3 3 2 2 2 4 4 5 7 8 14 9 11 16 17 21 23
6 8 11 12 13 13 13 13 15 16 17 18 19 23 21 20 24 9 1 4 11 10 2 1 2 4 5 4 4 5 8 4 4 3 3 3 1 3 3 3 3 3 7 13 20 20 12 6 7 14 23 23 26 25
7 8 10 9 11 9 12 12 12 15 15 23 24 22 21 18 13 14 22 6 2 3 1 3 1 4 8 3 4 4 4 4 6 3 2 3 2 2 2 2 5 8 13 12 8 9 13 20 20 17 25 27 19 14
8 9 8 9 9 8 8 11 11 8 27 24 20 22 19 12 5 5 13 9 6 5 3 3 4 3 3 2 3 4 3 4 2 3 2 2 2 1 4 7 12 16 8 12 12 18 19 20 18 16 19 17 16 12
6 7 6 4 7 7 8 12 7 19 25 21 20 7 1 7 3 5 5 4 2 2 1 3 0 3 3 2 3 3 3 2 2 2 1 3 2 3 4 8 10 9 19 20 22 12 15 16 17 18 14 19 22 22
5 7 2 5 4 5 8 11 24 28 23 7 3 2 7 16 3 2 2 3 1 3 1 2 2 5 3 4 3 2 2 1 3 2 3 1 3 4 7 9 7 13 17 10 17 23 24 27 20 16 14 20 23 25
5 4 5 6 3 2 10 18 29 16 8 8 7 6 7 3 2 3 3 1 2 5 2 5 3 4 2 3 4 3 4 2 2 0 4 2 4 3 9 11 10 9 10 10 23 21 25 24 25 24 24 24 26 29
4 6 4 3 2 5 10 18 20 9 13 3 2 4 4 2 2 1 4 1 3 3 4 3 4 3 3 4 4 3 4 1 1 3 3 4 2 4 7 10 9 13 17 20 19 22 28 27 27 29 26 28 34 34
10 2 5 7 6 13 10 12 17 11 4 3 3 5 2 2 2 2 1 2 2 3 5 5 4 4 2 4 2 5 0 3 3 1 5 3 7 7 8 10 14 11 12 16 20 25 26 28 26 28 32 36 38 35
7 8 6 12 13 11 10 12 16 7 4 3 2 3 2 2 1 1 2 3 2 2 3 4 4 4 3 5 2 4 3 3 5 5 3 3 6 9 11 10 12 13 11 13 22 24 23 27 28 27 32 35 36 38
8 5 3 8 12 11 9 13 13 5 4 3 4 3 3 3 3 2 1 3 1 2 2 4 4 4 2 4 3 3 7 6 4 3 3 4 7 7 11 10 11 17 20 20 21 24 27 28 28 29 31 33 35 38
2 0 2 9 11 14 12 9 5 4 2 3 1 1 1 1 2 1 1 2 1 1 3 3 4 1 3 4 2 3 5 3 3 2 1 4 9 10 10 14 17 20 21 21 23 24 25 28 32 31 24 26 32 33
3 6 6 10 15 10 9 12 4 3 4 2 2 2 2 1 2 1 1 1 2 2 2 3 5 3 4 5 3 3 3 2 1 2 3 5 6 13 18 18 19 21 22 22 24 28 30 29 24 20 28 31 29 29
9 6 7 17 11 4 3 6 5 3 1 1 3 2 1 2 2 3 2 2 1 2 5 2 4 3 3 3 2 2 3 3 4 2 3 8 14 17 19 18 22 23 23 26 27 23 23 24 26 32 33 33 28 30
7 4 11 18 9 4 4 3 3 3 2 2 1 2 1 1 3 1 3 2 3 2 5 3 2 2 3 1 3 3 3 5 8 6 4 4 13 17 18 21 19 23 23 23 22 27 26 22 26 31 33 33 33 32
5 3 11 13 5 8 3 2 2 1 2 1 3 2 2 2 3 3 3 1 3 2 1 1 2 0 2 1 3 8 7 6 2 3 5 5 9 15 17 19 21 22 22 20 20 18 22 21 30 32 33 32 29 32
4 5 7 9 7 5 3 6 1 3 1 1 3 3 3 2 2 2 2 3 1 1 1 2 2 2 3 4 5 13 14 16 15 18 17 23 6 8 11 18 21 15 17 20 23 24 25 26 30 30 30 29 26 28
4 5 5 9 6 6 3 6 3 4 3 3 3 3 3 2 1 2 2 1 1 2 2 3 5 11 9 11 17 14 10 14 9 11 15 15 17 18 19 20 21 21 16 17 23 27 28 26 28 28 27 28 26 26
3 4 4 4 4 1 3 5 2 3 3 3 2 3 3 3 4 3 3 0 1 1 2 3 7 5 6 7 3 4 5 11 15 13 16 18 13 13 19 22 22 21 22 29 26 26 26 26 27 27 28 29 28 28
4 5 4 3 2 4 4 3 3 3 2 2 2 2 2 2 2 2 1 2 2 2 2 3 4 3 4 3 2 5 7 14 12 6 11 18 20 17 16 15 15 17 21 27 25 26 26 26 27 28 29 30 30 28
3 2 2 3 1 3 0 3 2 1 2 2 2 0 2 2 3 2 1 3 3 3 2 2 1 2 3 3 4 4 9 12 17 12 12 18 22 20 15 11 10 13 19 23 30 29 28 28 27 27 27 27 27 27
2 1 1 2 1 1 1 1 1 2 1 2 2 2 2 3 1 0 2 3 3 7 10 9 4 3 5 9 8 11 14 13 13 12 13 14 14 17 25 22 18 18 23 23 26 28 30 29 27 26 25 24 25 26
1 2 3 3 1 1 2 2 1 2 2 2 3 2 4 3 1 2 2 8 14 14 10 7 4 4 10 13 15 18 16 14 15 16 17 14 11 10 12 14 15 12 18 18 19 21 23 24 25 25 24 24 23 22
2 2 2 3 2 1 2 3 2 1 3 1 2 2 2 2 4 5 7 18 16 10 5 5 9 14 16 16 16 15 17 18 17 8 7 4 5 10 13 14 15 16 17 19 17 16 16 17 18 19 19 19 18 18
0 2 2 2 4 4 3 3 1 1 2 2 3 3 2 2 7 15 15 15 12 5 5 10 12 17 17 17 15 12 12 12 13 12 7 7 12 13 18 17 16 16 16 19 20 19 16 16 16 15 15 15 14 15
1 2 1 1 2 2 3 2 2 2 1 2 2 1 3 3 2 20 25 22 15 10 13 13 12 13 16 17 16 12 5 6 8 7 3 8 14 19 21 18 17 17 18 22 24 23 22 19 17 16 16 16 16 16
2 4 5 3 2 2 5 3 2 2 1 1 2 1 3 3 3 6 25 24 18 19 21 16 12 12 13 13 12 8 10 13 10 8 12 13 17 18 18 17 16 17 19 21 22 20 18 17 17 16 15 14 14 14
1 1 1 2 3 3 4 3 2 2 2 2 2 2 2 2 3 3 12 22 18 18 19 17 16 21 23 24 23 21 19 18 16 13 12 12 14 15 15 15 16 16 17 17 17 17 16 14 13 13 13 11 12 13
Wind_Direction
158 168 175 177 182 189 191 198 205 203 202 207 230 233 233 239 251 202 184 178 180 274 288 218 281 233 139 189 147 194 77 354 52 72 108 165 113 184 89 154 166 143 123 130 93 86 251 354 89 156 185 70 139 140
149 166 176 180 181 189 193 200 208 197 202 227 242 240 236 243 216 190 171 203 218 260 282 299 269 261 242 278 138 49 155 134 160 92 80 121 93 94 134 160 31 80 166 162 161 197 312 354 349 53 136 134 136 129
174 166 172 178 181 190 201 201 203 204 222 229 245 244 232 255 195 192 176 169 201 230 278 313 255 271 278 261 236 118 281 145 82 141 142 131 98 126 122 204 102 45 129 92 126 358 25 39 48 47 96 115 120 129
157 162 167 175 183 191 204 208 202 214 217 231 239 227 241 212 190 201 203 221 239 259 133 281 343 295 304 267 220 220 128 90 101 69 86 104 112 178 183 148 125 191 105 122 79 63 99 28 68 108 102 108 110 121
144 157 171 182 189 197 196 203 220 230 230 245 226 237 214 181 189 204 234 239 236 293 238 267 306 7 34 119 112 113 100 98 75 59 58 100 108 111 11 84 145 188 162 155 203 185 130 142 127 132 121 126 128 126
158 171 181 183 185 182 204 226 242 248 255 233 240 217 189 182 165 153 296 249 235 232 241 151 291 350 13 55 66 56 54 71 76 101 107 105 103 105 100 151 262 184 160 149 152 122 104 119 121 123 119 126 127 128
168 178 181 182 188 203 211 238 238 236 229 246 191 179 182 182 178 174 177 17 168 187 189 88 22 333 329 14 35 36 36 63 83 101 68 119 70 77 101 154 187 129 107 113 116 113 92 139 141 120 119 119 119 118
178 191 189 195 208 204 242 252 233 226 260 181 169 169 169 181 182 250 265 218 184 215 201 117 288 24 11 21 63 1 59 34 21 111 59 80 34 45 94 178 106 105 108 116 121 61 120 119 118 118 121 124 119 122
162 178 201 210 219 197 223 218 231 250 163 158 162 156 153 165 223 234 249 275 245 220 142 103 129 176 5 41 71 41 47 53 307 77 57 74 333 178 201 157 152 150 149 135 105 112 122 126 130 133 131 133 129 133
171 183 180 249 202 234 272 220 236 172 148 152 148 180 178 169 152 154 233 179 56 277 62 101 204 107 83 34 50 74 27 73 65 301 20 70 251 261 205 168 151 140 130 128 115 120 127 134 145 147 151 148 144 146
204 181 261 180 227 307 208 302 152 146 155 177 146 168 119 120 61 266 272 125 240 58 20 152 165 122 346 97 122 45 147 34 85 252 117 21 275 237 150 135 136 152 154 158 156 156 159 151 152 145 142 140 142 146
107 145 151 148 314 101 14 136 154 161 178 183 139 104 103 107 36 317 216 177 78 156 179 131 169 125 78 97 95 343 102 42 133 163 76 242 249 201 146 140 137 143 135 115 131 134 136 141 146 144 143 142 147 154
92 119 31 14 356 343 349 141 178 155 140 131 88 89 73 348 232 201 107 16 108 169 183 146 73 107 80 60 68 93 84 154 118 55 220 225 234 157 136 126 112 114 115 115 115 127 132 130 141 145 140 151 158 159
138 108 67 33 27 98 101 125 157 156 79 56 42 69 68 296 6 80 146 200 235 134 122 99 70 89 75 63 101 78 44 93 59 141 234 225 197 156 138 139 126 133 132 132 132 133 133 136 139 153 157 162 162 159
128 90 79 21 70 100 60 113 149 94 60 59 356 80 123 34 301 322 278 319 259 150 109 92 63 83 40 97 56 117 108 179 201 225 230 215 169 142 138 138 133 131 129 133 137 135 136 139 142 146 161 165 167 165
100 33 29 29 34 20 45 116 102 55 47 48 41 42 25 27 330 29 11 292 285 130 89 60 95 76 60 121 111 151 139 200 237 218 222 149 137 132 138 138 137 138 138 137 140 141 142 146 147 149 158 167 169 169
24 226 52 33 34 27 64 81 66 49 45 55 2 10 69 76 296 318 250 251 55 34 97 96 76 80 122 73 119 186 196 210 222 254 162 148 144 135 126 123 127 130 130 133 133 137 137 147 149 144 142 164 170 174
129 141 84 16 357 41 44 19 79 93 70 27 95 313 355 189 260 291 346 324 81 84 84 127 129 115 136 145 223 228 179 111 45 127 106 109 105 121 134 131 133 136 134 136 140 140 143 145 146 148 154 163 169 172
129 119 42 10 6 70 68 6 27 93 88 250 271 279 273 266 257 260 217 257 69 101 116 79 86 136 203 218 174 151 156 159 136 99 70 87 119 124 119 123 130 133 138 142 145 148 153 158 159 160 162 166 162 170
131 114 13 6 19 69 67 15 357 75 75 284 318 337 311 295 296 31 85 56 36 45 47 71 140 179 163 220 179 152 139 134 129 110 77 66 112 123 133 138 137 133 127 131 136 145 144 146 165 169 170 171 168 173
54 38 4 0 37 57 82 40 57 67 333 45 290 6 355 346 39 52 67 347 47 66 62 132 107 40 56 45 92 117 117 127 129 136 146 134 131 125 122 126 133 137 139 144 146 152 158 162 170 176 177 179 182 182
66 27 348 13 38 27 64 19 27 303 353 291 23 357 36 31 29 29 293 73 69 336 85 108 125 114 77 51 70 115 119 115 111 105 106 125 130 130 140 146 141 143 152 160 162 164 169 174 175 177 180 179 182 183
81 14 25 15 52 37 309 340 28 9 53 29 15 34 21 25 346 257 84 55 4 333 49 82 78 90 91 90 106 103 116 125 107 115 130 123 133 143 144 156 159 148 143 162 175 170 170 174 175 175 177 176 177 178
64 49 47 36 54 331 319 8 6 15 39 35 42 35 15 353 330 45 81 78 295 281 57 107 114 94 69 65 64 83 98 134 120 124 141 130 124 133 159 165 172 173 174 169 171 171 169 171 175 177 177 178 180 182
68 337 72 5 8 53 45 13 8 53 71 68 65 30 322 350 79 58 97 335 7 41 88 106 95 89 111 111 94 118 134 152 135 124 144 156 132 132 143 156 164 172 172 163 162 168 171 173 177 179 182 185 186 189
74 294 104 202 31 71 163 112 21 20 67 68 73 44 7 49 58 63 39 350 357 9 1 343 112 94 75 136 154 157 152 158 148 119 147 167 167 155 153 150 148 171 180 186 173 173 175 179 180 182 187 192 195 194
78 250 347 241 98 62 45 100 240 312 217 179 157 141 94 76 196 83 356 27 347 357 331 314 276 183 160 148 147 144 145 152 160 153 150 161 173 185 178 168 176 178 179 185 186 183 180 181 185 189 191 195 201 205
196 179 142 168 80 112 127 27 128 199 232 237 97 50 122 151 132 331 284 327 330 323 312 297 255 192 147 147 146 142 134 135 129 134 133 132 141 148 168 169 168 154 173 179 185 188 190 189 189 191 193 197 201 208
165 174 112 139 112 69 195 199 244 347 344 337 104 94 104 71 352 323 313 322 326 304 271 156 113 128 127 132 141 146 146 145 133 128 142 141 136 175 175 179 175 173 175 174 179 186 192 194 195 197 200 203 206 209
121 137 105 128 163 213 233 167 60 27 17 50 115 117 104 89 13 15 2 357 352 343 147 148 145 145 136 132 126 136 158 166 168 148 164 190 198 193 180 177 173 171 173 176 173 171 178 182 183 184 186 188 194 198
34 94 144 178 229 235 202 123 95 89 39 21 31 98 114 137 137 26 14 5 12 58 90 92 95 129 135 137 138 131 114 167 181 198 204 159 164 166 174 179 179 177 175 176 174 172 170 171 177 183 192 197 203 210
195 190 168 193 235 154 139 175 129 102 69 52 50 45 70 51 47 19 6 12 20 37 34 47 69 88 126 135 142 144 139 130 129 128 142 144 146 152 158 161 163 165 166 170 175 176 181 185 186 191 197 204 212 221
104 166 189 157 127 169 192 149 115 101 45 75 66 84 69 56 89 357 4 24 27 30 42 57 82 108 111 112 110 108 106 100 93 88 100 120 145 151 154 156 156 158 161 164 169 174 180 186 192 197 203 214 222 229